When you browse on this site, cookies collect data to enhance your experience and personalize the content and advertising you see.
Visit our Privacy Policy to learn more. By continuing to use the site, you agree to this use of cookies and data.
  • In Schweiz
  • Länderverzeichnis
  • Für 7 Tage
  • Wassertemperatur
  • Wetterkarte
  • Widgets
  • user-avatar
    Anmelden

    Stündliche Wetter Chichester

    Heute, 9 Dezember, Montag

    Zeit Temperatur Niederschläge Wind Luftdruck Luftfeuchtigkeit
    00:00 +7°C° 0 mm 13 m/S 744 mmHg 78%
    01:00 +5°C° 0.1 mm 13 m/S 743 mmHg 80%
    02:00 +5°C° 0.1 mm 13 m/S 743 mmHg 81%
    03:00 +4°C° 0.1 mm 12 m/S 743 mmHg 82%
    04:00 +5°C° 0.1 mm 13 m/S 744 mmHg 80%
    05:00 +5°C° 0.1 mm 13 m/S 746 mmHg 78%
    06:00 +6°C° 0 mm 11 m/S 747 mmHg 78%
    07:00 +6°C° 0 mm 11 m/S 749 mmHg 78%
    08:00 +6°C° 0 mm 11 m/S 751 mmHg 77%
    09:00 +4°C° 0 mm 11 m/S 753 mmHg 77%
    10:00 +6°C° 0 mm 11 m/S 755 mmHg 74%
    11:00 +6°C° 0 mm 11 m/S 757 mmHg 71%
    12:00 +7°C° 0 mm 11 m/S 759 mmHg 68%
    13:00 +6°C° 0 mm 10 m/S 759 mmHg 69%
    14:00 +6°C° 0 mm 8 m/S 760 mmHg 70%
    15:00 +5°C° 0 mm 7 m/S 761 mmHg 71%
    16:00 +5°C° 0 mm 7 m/S 763 mmHg 73%
    17:00 +4°C° 0 mm 6 m/S 764 mmHg 76%
    18:00 +3°C° 0 mm 5 m/S 765 mmHg 78%
    19:00 +2°C° 0 mm 5 m/S 766 mmHg 79%
    20:00 +3°C° 0 mm 4 m/S 766 mmHg 80%
    21:00 +3°C° 0 mm 3 m/S 767 mmHg 81%
    22:00 +3°C° 0 mm 3 m/S 767 mmHg 82%
    23:00 +3°C° 0 mm 2 m/S 767 mmHg 83%

    Morgen, 10 Dezember, Dienstag

    Zeit Temperatur Niederschläge Wind Luftdruck Luftfeuchtigkeit
    00:00 +3°C° 0 mm 2 m/S 767 mmHg 83%
    01:00 +4°C° 0 mm 2 m/S 767 mmHg 83%
    02:00 +3°C° 0 mm 3 m/S 766 mmHg 83%
    03:00 +3°C° 0 mm 4 m/S 766 mmHg 83%
    04:00 +3°C° 0 mm 5 m/S 766 mmHg 83%
    05:00 +4°C° 0 mm 6 m/S 765 mmHg 82%
    06:00 +5°C° 0 mm 7 m/S 765 mmHg 82%
    07:00 +5°C° 0 mm 8 m/S 764 mmHg 82%
    08:00 +6°C° 0 mm 9 m/S 763 mmHg 83%
    09:00 +6°C° 0 mm 10 m/S 762 mmHg 84%
    10:00 +7°C° 0.3 mm 11 m/S 761 mmHg 85%
    11:00 +7°C° 0.3 mm 12 m/S 760 mmHg 87%
    12:00 +7°C° 0.3 mm 13 m/S 760 mmHg 88%
    13:00 +7°C° 0.8 mm 13 m/S 758 mmHg 89%
    14:00 +8°C° 0.8 mm 14 m/S 756 mmHg 89%
    15:00 +8°C° 0.8 mm 14 m/S 755 mmHg 90%
    16:00 +9°C° 0.4 mm 14 m/S 754 mmHg 90%
    17:00 +9°C° 0.4 mm 15 m/S 753 mmHg 90%
    18:00 +9°C° 0.4 mm 15 m/S 753 mmHg 90%
    19:00 +8°C° 1.4 mm 13 m/S 753 mmHg 89%
    20:00 +7°C° 1.4 mm 11 m/S 753 mmHg 88%
    21:00 +6°C° 1.4 mm 9 m/S 753 mmHg 87%
    22:00 +6°C° 0.5 mm 8 m/S 754 mmHg 86%
    23:00 +5°C° 0.5 mm 7 m/S 754 mmHg 84%

    übermorgen, 11 Dezember, Mittwoch

    Zeit Temperatur Niederschläge Wind Luftdruck Luftfeuchtigkeit
    00:00 +5°C° 0.5 mm 6 m/S 755 mmHg 82%
    01:00 +5°C° 0 mm 6 m/S 755 mmHg 83%
    02:00 +5°C° 0 mm 5 m/S 755 mmHg 84%
    03:00 +3°C° 0 mm 5 m/S 754 mmHg 85%
    04:00 +3°C° 0 mm 5 m/S 754 mmHg 85%
    05:00 +4°C° 0 mm 4 m/S 754 mmHg 85%
    06:00 +4°C° 0 mm 4 m/S 754 mmHg 85%
    07:00 +4°C° 0.1 mm 4 m/S 754 mmHg 84%
    08:00 +4°C° 0.1 mm 4 m/S 754 mmHg 83%
    09:00 +5°C° 0.1 mm 5 m/S 753 mmHg 82%
    10:00 +5°C° 0.4 mm 5 m/S 753 mmHg 79%
    11:00 +5°C° 0.4 mm 6 m/S 752 mmHg 76%
    12:00 +6°C° 0.4 mm 7 m/S 751 mmHg 73%
    13:00 +6°C° 0.3 mm 8 m/S 751 mmHg 75%
    14:00 +5°C° 0.3 mm 9 m/S 750 mmHg 77%
    15:00 +3°C° 0.3 mm 10 m/S 749 mmHg 79%
    16:00 +3°C° 0 mm 9 m/S 750 mmHg 80%
    17:00 +2°C° 0 mm 8 m/S 750 mmHg 82%
    18:00 +2°C° 0 mm 7 m/S 750 mmHg 83%
    19:00 +2°C° 0 mm 7 m/S 751 mmHg 83%
    20:00 0°C° 0 mm 7 m/S 751 mmHg 82%
    21:00 0°C° 0 mm 7 m/S 752 mmHg 81%
    22:00 0°C° 0 mm 7 m/S 752 mmHg 82%
    23:00 0°C° 0 mm 7 m/S 753 mmHg 82%

    12 Dezember, Donnerstag

    Zeit Temperatur Niederschläge Wind Luftdruck Luftfeuchtigkeit
    00:00 0°C° 0 mm 7 m/S 753 mmHg 83%
    01:00 0°C° 0 mm 7 m/S 753 mmHg 84%
    02:00 +1°C° 0 mm 6 m/S 753 mmHg 85%
    03:00 +1°C° 0 mm 6 m/S 753 mmHg 86%
    04:00 +1°C° 0 mm 6 m/S 752 mmHg 84%
    05:00 +1°C° 0 mm 6 m/S 752 mmHg 83%
    06:00 +1°C° 0 mm 6 m/S 751 mmHg 81%
    07:00 +2°C° 0 mm 7 m/S 750 mmHg 82%
    08:00 +4°C° 0 mm 8 m/S 749 mmHg 82%
    09:00 +5°C° 0 mm 9 m/S 748 mmHg 83%
    10:00 +6°C° 0.8 mm 11 m/S 746 mmHg 85%
    11:00 +5°C° 0.8 mm 13 m/S 743 mmHg 87%
    12:00 +6°C° 0.8 mm 15 m/S 741 mmHg 89%
    13:00 +8°C° 2.9 mm 14 m/S 739 mmHg 90%
    14:00 +8°C° 2.9 mm 13 m/S 737 mmHg 90%
    15:00 +9°C° 2.9 mm 12 m/S 734 mmHg 91%
    16:00 +8°C° 0.7 mm 13 m/S 733 mmHg 85%
    17:00 +8°C° 0.7 mm 13 m/S 732 mmHg 80%
    18:00 +6°C° 0.7 mm 14 m/S 732 mmHg 74%
    19:00 +5°C° 0.2 mm 14 m/S 732 mmHg 77%
    20:00 +4°C° 0.2 mm 14 m/S 732 mmHg 80%
    21:00 +3°C° 0.2 mm 14 m/S 732 mmHg 83%
    22:00 +1°C° 0.3 mm 14 m/S 732 mmHg 84%
    23:00 +1°C° 0.3 mm 13 m/S 731 mmHg 85%

    13 Dezember, Freitag

    Zeit Temperatur Niederschläge Wind Luftdruck Luftfeuchtigkeit
    00:00 0°C° 0.3 mm 13 m/S 731 mmHg 87%
    01:00 0°C° 0.2 mm 13 m/S 731 mmHg 83%
    02:00 0°C° 0.2 mm 13 m/S 730 mmHg 80%
    03:00 +1°C° 0.2 mm 14 m/S 730 mmHg 76%
    04:00 +1°C° 0 mm 14 m/S 730 mmHg 76%
    05:00 +1°C° 0 mm 15 m/S 729 mmHg 75%
    06:00 +1°C° 0 mm 16 m/S 729 mmHg 75%
    07:00 +2°C° 0 mm 16 m/S 730 mmHg 76%
    08:00 +4°C° 0 mm 16 m/S 730 mmHg 76%
    09:00 +4°C° 0 mm 16 m/S 731 mmHg 76%
    10:00 +5°C° 0 mm 16 m/S 732 mmHg 76%
    11:00 +5°C° 0 mm 15 m/S 733 mmHg 75%
    12:00 +5°C° 0 mm 15 m/S 735 mmHg 75%
    13:00 +5°C° 0 mm 15 m/S 735 mmHg 74%
    14:00 +4°C° 0 mm 14 m/S 736 mmHg 73%
    15:00 +4°C° 0 mm 14 m/S 736 mmHg 73%
    16:00 +3°C° 0 mm 14 m/S 737 mmHg 73%
    17:00 +3°C° 0 mm 13 m/S 737 mmHg 73%
    18:00 +3°C° 0 mm 13 m/S 737 mmHg 73%
    19:00 +2°C° 0 mm 12 m/S 738 mmHg 74%
    20:00 +2°C° 0 mm 11 m/S 738 mmHg 76%
    21:00 +2°C° 0 mm 10 m/S 738 mmHg 77%
    22:00 +2°C° 0 mm 10 m/S 738 mmHg 76%
    23:00 +2°C° 0 mm 10 m/S 739 mmHg 75%

    14 Dezember, Samstag

    Zeit Temperatur Niederschläge Wind Luftdruck Luftfeuchtigkeit
    00:00 +2°C° 0 mm 10 m/S 739 mmHg 74%
    01:00 +2°C° 0 mm 10 m/S 740 mmHg 74%
    02:00 +2°C° 0 mm 10 m/S 740 mmHg 73%
    03:00 +2°C° 0 mm 10 m/S 740 mmHg 72%
    04:00 +2°C° 0 mm 9 m/S 740 mmHg 74%
    05:00 +2°C° 0 mm 8 m/S 741 mmHg 75%
    06:00 +2°C° 0 mm 8 m/S 741 mmHg 76%
    07:00 +3°C° 0.3 mm 7 m/S 741 mmHg 80%
    08:00 +3°C° 0.3 mm 7 m/S 741 mmHg 84%
    09:00 +3°C° 0.3 mm 6 m/S 742 mmHg 88%
    10:00 +4°C° 0.1 mm 8 m/S 742 mmHg 83%
    11:00 +5°C° 0.1 mm 10 m/S 742 mmHg 79%
    12:00 +5°C° 0.1 mm 12 m/S 743 mmHg 75%
    13:00 +4°C° 0 mm 11 m/S 743 mmHg 73%
    14:00 +4°C° 0 mm 11 m/S 744 mmHg 72%
    15:00 +5°C° 0 mm 10 m/S 745 mmHg 71%
    16:00 +3°C° 0 mm 9 m/S 745 mmHg 70%
    17:00 +4°C° 0 mm 8 m/S 746 mmHg 70%
    18:00 +3°C° 0 mm 7 m/S 746 mmHg 70%
    19:00 +3°C° 0 mm 7 m/S 746 mmHg 72%
    20:00 +3°C° 0 mm 7 m/S 745 mmHg 73%
    21:00 +4°C° 0 mm 6 m/S 745 mmHg 75%
    22:00 +5°C° 0.5 mm 8 m/S 744 mmHg 80%
    23:00 +6°C° 0.5 mm 10 m/S 743 mmHg 85%
    Mehr zeigen